Location: Roland
(31.1349°N, 85.4372°W)
Time: 01:52:34
(UTC+00:00)

Vanguard 1 Rocket - Pass Details

Date: 12 October 2022
Orbit: 650 x 4225 km, 34.3° (Epoch: 06 December)

Event Time Altitude Azimuth Distance (km) Brightness Sun altitude
Rises 04:12:11 0° 288° (WNW) 7,546 12.4 -60.3°
Reaches altitude 10° 04:18:02 10° 287° (WNW) 6,016 11.8 -61.1°
Enters shadow 04:25:59 30° 282° (WNW) 3,784 10.5 -62.1°
